Find Starlink 31406

NORAD ID: 59017 Int'l Des: 2024-036 Owner: SPXS Country: US Constellation: starlink operational
LEOCIRCULAR

Current View

Loading 3D Globe...

About Starlink 31406

Starlink 31406 (NORAD 59017) is a starlink constellation satellite (v2 mini) launched Feb 23, 2024 by SPXS of US. It operates in LEO, CIRCULAR orbit with a mass of 730.00 kg.

About Starlink 31406

Description loading...

Upcoming Passes

Passes for default location (London). Set your location on the main map for personalized predictions.

Altitude History

Loading altitude history...

Two-Line Element Set

1 59017U 24036V 26171.37401623 -.00001715 00000-0 -39654-4 0 9997
2 59017 53.1601 306.3430 0001076 82.2450 277.8675 15.34391681131259
Epoch: Jun 20, 2026 • Age: 19 hours

Current Status

Altitude 465.4 km
Velocity 7.64 km/s
Sub-Earth Point 38.27°N, 112.74°E
Launch Date Feb 23, 2024
Age 2.3 years
Type internet

Technical Details

Classification Payload
Mass 730.00 kg
Dry Mass 700.00 kg
Total Mass 730.00 kg
Length 0.30 m
Diameter 4.10 m
Span 29.00 m
Shape Box + pan
Manufacturer SPXS
Bus Type Starlink V2M
Phase Status In Orbit
Owner/State SPXS/US

Most Searched